�������l�o���
Date,Time,MP-1(��Sv/h),MP-2(��Sv/h),MP-3(��Sv/h),MP-4(��Sv/h),MP-5(��Sv/h),MP-6(��Sv/h),MP-7(��Sv/h),MP-8(��Sv/h),����,����(m/s),���J
2019/04/08,00:00,0.782,1.154,0.794,1.479,1.072,0.443,0.787,0.743,�k,7.7,��
2019/04/08,00:10,0.784,1.157,0.798,1.478,1.071,0.445,0.787,0.743,�k,7.9,��
2019/04/08,00:20,0.783,1.152,0.795,1.478,1.070,0.444,0.787,0.742,�k,7.2,��
2019/04/08,00:30,0.783,1.151,0.794,1.478,1.071,0.442,0.788,0.743,�k,6.7,��
2019/04/08,00:40,0.783,1.155,0.795,1.480,1.072,0.444,0.785,0.743,�k,7.0,��
2019/04/08,00:50,0.783,1.152,0.796,1.479,1.072,0.443,0.786,0.743,�k,6.3,��
2019/04/08,01:00,0.785,1.153,0.795,1.478,1.072,0.444,0.787,0.743,�k,7.8,��
2019/04/08,01:10,0.781,1.152,0.796,1.481,1.071,0.444,0.788,0.743,�k�k��,8.1,��
2019/04/08,01:20,0.783,1.151,0.796,1.478,1.070,0.443,0.786,0.744,�k,7.0,��
2019/04/08,01:30,0.784,1.152,0.795,1.478,1.070,0.441,0.786,0.743,�k,7.7,��
2019/04/08,01:40,0.782,1.150,0.794,1.477,1.070,0.442,0.786,0.743,�k�k��,7.6,��
2019/04/08,01:50,0.782,1.153,0.794,1.477,1.072,0.443,0.788,0.742,�k,9.4,��
2019/04/08,02:00,0.782,1.153,0.796,1.478,1.070,0.442,0.785,0.742,�k,7.5,��
2019/04/08,02:10,0.784,1.153,0.795,1.477,1.068,0.440,0.787,0.744,�k�k��,8.8,��
2019/04/08,02:20,0.782,1.151,0.794,1.479,1.070,0.441,0.787,0.743,�k�k��,7.8,��
2019/04/08,02:30,0.783,1.152,0.794,1.480,1.070,0.442,0.785,0.745,�k�k��,7.5,��
2019/04/08,02:40,0.782,1.154,0.795,1.480,1.070,0.441,0.787,0.744,�k,8.2,��
2019/04/08,02:50,0.781,1.151,0.794,1.479,1.073,0.442,0.786,0.743,�k,7.5,��
2019/04/08,03:00,0.782,1.152,0.794,1.478,1.070,0.442,0.786,0.742,�k�k��,7.7,��
2019/04/08,03:10,0.782,1.154,0.796,1.479,1.070,0.440,0.787,0.744,�k�k��,7.6,��
2019/04/08,03:20,0.782,1.151,0.794,1.477,1.069,0.441,0.787,0.744,�k�k��,5.4,��
2019/04/08,03:30,0.783,1.152,0.796,1.479,1.070,0.441,0.787,0.742,�k�k��,6.8,��
2019/04/08,03:40,0.783,1.155,0.794,1.476,1.071,0.442,0.786,0.742,�k�k��,7.4,��
2019/04/08,03:50,0.781,1.152,0.797,1.480,1.073,0.441,0.787,0.742,�k�k��,8.1,��
2019/04/08,04:00,0.781,1.151,0.794,1.480,1.070,0.441,0.786,0.744,�k,8.6,��
2019/04/08,04:10,0.782,1.153,0.795,1.480,1.070,0.441,0.786,0.743,�k,7.4,��
2019/04/08,04:20,0.782,1.153,0.797,1.477,1.074,0.442,0.787,0.741,�k�k��,7.6,��
2019/04/08,04:30,0.783,1.152,0.795,1.476,1.072,0.442,0.785,0.743,�k�k��,7.1,��
2019/04/08,04:40,0.782,1.150,0.796,1.476,1.070,0.441,0.786,0.744,�k�k��,6.2,��
2019/04/08,04:50,0.783,1.150,0.795,1.480,1.072,0.442,0.786,0.742,�k�k��,6.8,��
2019/04/08,05:00,0.783,1.152,0.794,1.479,1.070,0.442,0.786,0.743,�k�k��,6.9,��
2019/04/08,05:10,0.784,1.152,0.796,1.479,1.070,0.443,0.786,0.743,�k�k��,6.5,��
2019/04/08,05:20,0.783,1.154,0.795,1.480,1.070,0.441,0.787,0.742,�k�k��,5.9,��
2019/04/08,05:30,0.782,1.152,0.795,1.478,1.071,0.441,0.786,0.741,�k��,7.5,��
2019/04/08,05:40,0.783,1.152,0.794,1.476,1.072,0.442,0.786,0.744,�k��,6.4,��
2019/04/08,05:50,0.783,1.153,0.793,1.479,1.069,0.442,0.786,0.743,�k��,6.5,��
2019/04/08,06:00,0.784,1.153,0.794,1.475,1.072,0.441,0.787,0.744,�k��,5.2,��
2019/04/08,06:10,0.781,1.152,0.793,1.481,1.070,0.442,0.785,0.742,�k��,5.1,��
2019/04/08,06:20,0.783,1.152,0.795,1.480,1.072,0.442,0.787,0.743,�k��,5.5,��
2019/04/08,06:30,0.781,1.152,0.796,1.479,1.072,0.441,0.786,0.743,�k�k��,4.0,��
2019/04/08,06:40,0.781,1.151,0.796,1.477,1.069,0.442,0.785,0.742,�k�k��,4.7,��
2019/04/08,06:50,0.781,1.152,0.794,1.479,1.070,0.442,0.786,0.744,�k�k��,4.9,��
2019/04/08,07:00,0.784,1.151,0.796,1.480,1.071,0.442,0.787,0.742,�k�k��,6.2,��
2019/04/08,07:10,0.781,1.153,0.795,1.480,1.069,0.441,0.786,0.742,�k�k��,7.2,��
2019/04/08,07:20,0.784,1.152,0.795,1.478,1.071,0.442,0.788,0.743,�k,6.3,��
2019/04/08,07:30,0.783,1.153,0.794,1.478,1.071,0.440,0.787,0.743,�k,5.6,��
2019/04/08,07:40,0.783,1.152,0.795,1.480,1.072,0.441,0.787,0.743,�k,7.7,��
2019/04/08,07:50,0.784,1.149,0.793,1.481,1.071,0.443,0.787,0.744,�k,7.2,��
2019/04/08,08:00,0.783,1.152,0.795,1.479,1.070,0.441,0.787,0.743,�k,6.6,��
2019/04/08,08:10,0.783,1.152,0.793,1.479,1.072,0.441,0.785,0.743,�k,6.0,��
2019/04/08,08:20,0.784,1.152,0.797,1.480,1.073,0.440,0.786,0.744,�k,5.6,��
2019/04/08,08:30,0.783,1.153,0.794,1.477,1.073,0.442,0.786,0.744,�k,4.9,��
2019/04/08,08:40,0.784,1.150,0.795,1.481,1.072,0.441,0.786,0.744,�k,6.0,��
2019/04/08,08:50,0.785,1.150,0.796,1.479,1.071,0.442,0.785,0.743,�k,4.6,��
2019/04/08,09:00,0.783,1.152,0.795,1.480,1.072,0.441,0.786,0.742,�k�k��,4.7,��
2019/04/08,09:10,0.782,1.146,0.794,1.478,1.072,0.441,0.784,0.744,�k�k��,4.9,��
2019/04/08,09:20,0.785,1.149,0.796,1.480,1.071,0.442,0.785,0.744,�k��,5.1,��
2019/04/08,09:30,0.786,1.150,0.796,1.480,1.072,0.441,0.786,0.744,�k�k��,4.7,��
2019/04/08,09:40,0.784,1.150,0.795,1.478,1.073,0.441,0.785,0.742,�k�k��,4.3,��
2019/04/08,09:50,0.786,1.152,0.795,1.480,1.074,0.441,0.783,0.744,�k�k��,4.0,��
2019/04/08,10:00,0.788,1.152,0.794,1.480,1.073,0.442,0.784,0.744,�k��,4.4,��
2019/04/08,10:10,0.786,1.154,0.793,1.479,1.069,0.444,0.785,0.742,���k��,3.8,��
2019/04/08,10:20,0.785,1.147,0.796,1.481,1.071,0.443,0.785,0.742,�k��,4.7,��
2019/04/08,10:30,0.786,1.149,0.795,1.480,1.071,0.440,0.784,0.741,�k��,4.2,��
2019/04/08,10:40,0.783,1.149,0.797,1.478,1.072,0.442,0.785,0.742,���k��,4.3,��
2019/04/08,10:50,0.786,1.152,0.796,1.480,1.072,0.440,0.783,0.743,���k��,4.2,��
2019/04/08,11:00,0.784,1.151,0.797,1.480,1.071,0.441,0.784,0.744,�k��,3.8,��
2019/04/08,11:10,0.783,1.149,0.794,1.478,1.071,0.441,0.784,0.742,�k��,4.8,��
2019/04/08,11:20,0.784,1.150,0.796,1.480,1.071,0.441,0.784,0.742,�k��,4.1,��
2019/04/08,11:30,0.784,1.147,0.797,1.481,1.072,0.439,0.787,0.742,���k��,4.0,��
2019/04/08,11:40,0.783,1.154,0.795,1.479,1.072,0.442,0.784,0.741,�k��,3.8,��
2019/04/08,11:50,0.785,1.152,0.795,1.480,1.072,0.441,0.783,0.741,���k��,4.2,��
2019/04/08,12:00,0.784,1.151,0.795,1.481,1.075,0.442,0.786,0.740,���k��,4.7,��
2019/04/08,12:10,0.783,1.153,0.796,1.481,1.072,0.442,0.785,0.740,��,5.2,��
2019/04/08,12:20,0.784,1.153,0.796,1.481,1.072,0.442,0.785,0.742,���쓌,4.4,��
2019/04/08,12:30,0.784,1.151,0.795,1.481,1.072,0.442,0.785,0.742,��,4.9,��
2019/04/08,12:40,0.785,1.148,0.793,1.480,1.072,0.443,0.786,0.742,��,3.8,��
2019/04/08,12:50,0.785,1.152,0.793,1.482,1.071,0.443,0.785,0.740,��,3.3,��
2019/04/08,13:00,0.783,1.149,0.796,1.481,1.070,0.442,0.786,0.741,��,3.3,��
2019/04/08,13:10,0.783,1.151,0.793,1.480,1.072,0.442,0.786,0.741,���k��,3.3,��
2019/04/08,13:20,0.783,1.151,0.793,1.482,1.073,0.444,0.783,0.740,��,3.6,��
2019/04/08,13:30,0.784,1.148,0.794,1.483,1.073,0.442,0.786,0.740,���쓌,3.7,��
2019/04/08,13:40,0.784,1.151,0.795,1.481,1.074,0.444,0.784,0.741,��,3.9,��
2019/04/08,13:50,0.782,1.153,0.793,1.483,1.074,0.444,0.785,0.741,��,4.0,��
2019/04/08,14:00,0.784,1.150,0.793,1.481,1.075,0.443,0.784,0.742,��,4.3,��
2019/04/08,14:10,0.787,1.152,0.796,1.480,1.074,0.442,0.786,0.742,��,4.2,��
2019/04/08,14:20,0.785,1.151,0.794,1.481,1.076,0.444,0.785,0.739,��,4.4,��
2019/04/08,14:30,0.783,1.152,0.795,1.480,1.073,0.443,0.784,0.742,���쓌,4.2,��
2019/04/08,14:40,0.785,1.153,0.796,1.481,1.073,0.442,0.784,0.741,��,4.2,��
2019/04/08,14:50,0.783,1.154,0.796,1.483,1.076,0.443,0.786,0.740,��,3.9,��
2019/04/08,15:00,0.785,1.152,0.796,1.483,1.074,0.443,0.785,0.739,���쓌,4.6,��
2019/04/08,15:10,0.784,1.154,0.797,1.481,1.075,0.444,0.784,0.740,��,3.2,��
2019/04/08,15:20,0.784,1.157,0.795,1.481,1.075,0.445,0.784,0.740,���쓌,3.5,��
2019/04/08,15:30,0.784,1.155,0.797,1.481,1.073,0.443,0.786,0.741,��,3.8,��
2019/04/08,15:40,0.784,1.156,0.795,1.480,1.072,0.444,0.785,0.742,��,3.2,��
2019/04/08,15:50,0.784,1.155,0.794,1.477,1.073,0.442,0.783,0.741,��,2.6,��
2019/04/08,16:00,0.786,1.156,0.799,1.478,1.071,0.442,0.786,0.740,��,2.6,��
2019/04/08,16:10,0.786,1.154,0.796,1.478,1.073,0.443,0.785,0.741,���쓌,2.5,��
2019/04/08,16:20,0.786,1.156,0.796,1.480,1.073,0.442,0.785,0.742,��,3.1,��
2019/04/08,16:30,0.785,1.156,0.797,1.478,1.074,0.442,0.786,0.741,���쓌,2.6,��
2019/04/08,16:40,0.784,1.155,0.796,1.479,1.071,0.445,0.785,0.744,�쓌,2.3,��
2019/04/08,16:50,0.786,1.158,0.795,1.480,1.073,0.443,0.783,0.744,���쓌,2.2,��
2019/04/08,17:00,0.786,1.158,0.797,1.479,1.073,0.443,0.784,0.744,���쓌,2.5,��
2019/04/08,17:10,0.786,1.157,0.799,1.480,1.073,0.443,0.784,0.744,�쓌,3.3,��
2019/04/08,17:20,0.783,1.158,0.796,1.481,1.074,0.443,0.784,0.744,�쓌,2.8,��
2019/04/08,17:30,0.784,1.157,0.798,1.479,1.076,0.442,0.784,0.745,�쓌,2.6,��
2019/04/08,17:40,0.783,1.156,0.797,1.480,1.074,0.442,0.785,0.743,��쓌,2.8,��
2019/04/08,17:50,0.786,1.157,0.797,1.479,1.074,0.443,0.786,0.743,���쓌,1.7,��
2019/04/08,18:00,0.785,1.158,0.798,1.480,1.075,0.443,0.784,0.743,���쓌,2.0,��
2019/04/08,18:10,0.787,1.158,0.798,1.479,1.076,0.443,0.788,0.743,���쓌,2.5,��
2019/04/08,18:20,0.784,1.157,0.798,1.479,1.076,0.444,0.786,0.743,���쓌,1.7,��
2019/04/08,18:30,0.785,1.157,0.797,1.479,1.074,0.443,0.788,0.744,�쓌,1.7,��
2019/04/08,18:40,0.785,1.157,0.797,1.481,1.075,0.443,0.788,0.744,��쓌,1.7,��
2019/04/08,18:50,0.786,1.158,0.796,1.482,1.072,0.443,0.786,0.743,���쓌,1.7,��
2019/04/08,19:00,0.786,1.158,0.797,1.482,1.076,0.444,0.787,0.743,���쓌,1.2,��
2019/04/08,19:10,0.784,1.157,0.798,1.479,1.076,0.443,0.786,0.743,��,0.6,��
2019/04/08,19:20,0.785,1.158,0.795,1.481,1.075,0.442,0.787,0.743,�쐼,0.8,��
2019/04/08,19:30,0.783,1.157,0.797,1.481,1.076,0.443,0.788,0.744,�쐼,0.6,��
2019/04/08,19:40,0.784,1.156,0.796,1.482,1.073,0.442,0.786,0.743,���k��,0.6,��
2019/04/08,19:50,0.784,1.156,0.798,1.479,1.074,0.443,0.787,0.742,-,CALM,��
2019/04/08,20:00,0.784,1.157,0.796,1.481,1.074,0.443,0.787,0.743,�k��,0.8,��
2019/04/08,20:10,0.783,1.155,0.798,1.479,1.073,0.444,0.788,0.742,�k�k��,2.3,��
2019/04/08,20:20,0.785,1.156,0.798,1.480,1.073,0.442,0.785,0.743,�k,2.2,��
2019/04/08,20:30,0.784,1.157,0.796,1.478,1.074,0.442,0.785,0.743,�k,2.0,��
2019/04/08,20:40,0.784,1.157,0.797,1.478,1.075,0.442,0.787,0.745,�k�k��,1.2,��
2019/04/08,20:50,0.784,1.156,0.797,1.479,1.074,0.442,0.787,0.742,�k��,1.5,��
2019/04/08,21:00,0.786,1.156,0.797,1.480,1.072,0.443,0.787,0.745,-,CALM,��
2019/04/08,21:10,0.786,1.159,0.796,1.479,1.074,0.442,0.787,0.743,-,CALM,�L
2019/04/08,21:20,0.785,1.155,0.795,1.479,1.075,0.442,0.787,0.743,�k�k��,1.9,�L
2019/04/08,21:30,0.785,1.157,0.798,1.480,1.074,0.443,0.788,0.742,�k��,4.8,��
2019/04/08,21:40,0.785,1.156,0.798,1.481,1.072,0.443,0.788,0.744,�k��,6.0,��
2019/04/08,21:50,0.785,1.157,0.797,1.479,1.074,0.441,0.786,0.743,�k��,3.4,��
2019/04/08,22:00,0.785,1.158,0.798,1.481,1.072,0.444,0.787,0.743,�k�k��,5.0,��
2019/04/08,22:10,0.783,1.157,0.797,1.482,1.075,0.442,0.788,0.744,�k�k��,5.0,��
2019/04/08,22:20,0.785,1.157,0.797,1.482,1.074,0.442,0.787,0.743,�k,5.2,��
2019/04/08,22:30,0.785,1.154,0.798,1.480,1.074,0.442,0.787,0.744,�k,5.2,��
2019/04/08,22:40,0.785,1.154,0.796,1.480,1.074,0.442,0.787,0.743,�k,4.7,��
2019/04/08,22:50,0.783,1.156,0.796,1.481,1.074,0.441,0.788,0.744,�k,4.3,��
2019/04/08,23:00,0.785,1.159,0.796,1.483,1.071,0.442,0.787,0.744,�k�k��,4.7,��
2019/04/08,23:10,0.784,1.155,0.796,1.479,1.074,0.441,0.788,0.743,�k�k��,6.8,�L
2019/04/08,23:20,0.784,1.156,0.797,1.481,1.073,0.442,0.789,0.742,�k,6.0,��
2019/04/08,23:30,0.784,1.157,0.797,1.481,1.074,0.441,0.788,0.743,�k,5.6,��
2019/04/08,23:40,0.785,1.156,0.796,1.480,1.075,0.443,0.786,0.743,�k,6.1,��
2019/04/08,23:50,0.785,1.155,0.795,1.479,1.073,0.441,0.788,0.742,�k,5.5,��
